| time (UTC) | temp F | wind direction | speed knots | gust knots | rain 1hr in | rain 24hr in | rain mn in | humidity % | barometer mb |
| 20260831225905 | 78 | 223 | 2.6 | 6.1 | 0.00 | 0.00 | 0.00 | 72 | 1015.6 |
| 20260831225401 | 78 | 255 | 2.6 | 3.5 | 0.00 | 0.00 | 0.00 | 71 | 1015.3 |
| 20260831224855 | 78 | 27 | 0.0 | 7.0 | 0.00 | 0.00 | 0.00 | 72 | 1015.6 |
| 20260831224350 | 77 | 207 | 4.3 | 5.2 | 0.00 | 0.00 | 0.00 | 73 | 1015.3 |
| 20260831223850 | 77 | 196 | 2.6 | 7.0 | 0.00 | 0.00 | 0.00 | 73 | 1015.6 |
| 20260831223346 | 79 | 264 | 2.6 | 3.5 | 0.00 | 0.00 | 0.00 | 70 | 1015.6 |
| 20260831222843 | 78 | 262 | 2.6 | 3.5 | 0.00 | 0.00 | 0.00 | 71 | 1015.6 |
| 20260831222338 | 77 | 283 | 3.5 | 6.1 | 0.00 | 0.00 | 0.00 | 73 | 1015.6 |
| 20260831221833 | 78 | 281 | 3.5 | 5.2 | 0.00 | 0.00 | 0.00 | 72 | 1016.0 |
| 20260831221329 | 77 | 244 | 4.3 | 6.1 | 0.00 | 0.00 | 0.00 | 72 | 1016.0 |
| 20260831220824 | 78 | 317 | 1.7 | 3.5 | 0.00 | 0.00 | 0.00 | 71 | 1016.0 |
| 20260831220319 | 78 | 254 | 1.7 | 6.1 | 0.00 | 0.00 | 0.00 | 72 | 1016.0 |
| 20260831215814 | 77 | 248 | 3.5 | 7.0 | 0.00 | 0.00 | 0.00 | 72 | 1016.0 |
| 20260831215310 | 77 | 264 | 4.3 | 6.1 | 0.00 | 0.00 | 0.00 | 72 | 1016.0 |
| 20260831214807 | 78 | 231 | 3.5 | 6.1 | 0.00 | 0.00 | 0.00 | 71 | 1016.0 |
| 20260831214304 | 78 | 225 | 1.7 | 6.1 | 0.00 | 0.00 | 0.00 | 71 | 1016.0 |
| 20260831213759 | 79 | 221 | 1.7 | 7.0 | 0.00 | 0.00 | 0.00 | 70 | 1016.0 |
| 20260831213255 | 80 | 216 | 2.6 | 3.5 | 0.00 | 0.00 | 0.00 | 68 | 1016.0 |
| 20260831212750 | 78 | 287 | 1.7 | 3.5 | 0.00 | 0.00 | 0.00 | 72 | 1016.0 |
| 20260831212247 | 79 | 327 | 1.7 | 5.2 | 0.00 | 0.00 | 0.00 | 71 | 1016.0 |
| 20260831211744 | 80 | 299 | 1.7 | 7.0 | 0.00 | 0.00 | 0.00 | 70 | 1016.3 |
| 20260831211240 | 79 | 266 | 1.7 | 6.1 | 0.00 | 0.00 | 0.00 | 70 | 1016.3 |
| 20260831210735 | 79 | 162 | 3.5 | 7.0 | 0.00 | 0.00 | 0.00 | 69 | 1016.3 |
| 20260831210231 | 79 | 274 | 2.6 | 6.1 | 0.00 | 0.00 | 0.00 | 69 | 1016.3 |
| 20260831205730 | 79 | 309 | 1.7 | 5.2 | 0.00 | 0.00 | 0.00 | 70 | 1016.3 |
| 20260831205226 | 79 | 213 | 1.7 | 6.1 | 0.00 | 0.00 | 0.00 | 70 | 1016.0 |
| 20260831204721 | 79 | 234 | 2.6 | 5.2 | 0.00 | 0.00 | 0.00 | 69 | 1016.6 |
| 20260831204220 | 78 | 281 | 1.7 | 5.2 | 0.00 | 0.00 | 0.00 | 70 | 1016.0 |
| 20260831203714 | 79 | 295 | 1.7 | 5.2 | 0.00 | 0.00 | 0.00 | 70 | 1016.3 |
| 20260831203213 | 79 | 256 | 3.5 | 6.1 | 0.00 | 0.00 | 0.00 | 70 | 1016.3 |
| 20260831202712 | 79 | 238 | 1.7 | 7.0 | 0.00 | 0.00 | 0.00 | 70 | 1016.6 |
| 20260831202207 | 80 | 293 | 0.9 | 6.1 | 0.00 | 0.00 | 0.00 | 69 | 1016.3 |
| 20260831201706 | 79 | 276 | 1.7 | 3.5 | 0.00 | 0.00 | 0.00 | 69 | 1016.3 |
| 20260831201201 | 78 | 212 | 2.6 | 7.0 | 0.00 | 0.00 | 0.00 | 70 | 1016.3 |
| 20260831200657 | 79 | 272 | 2.6 | 7.0 | 0.00 | 0.00 | 0.00 | 69 | 1016.6 |
| 20260831200156 | 79 | 230 | 2.6 | 3.5 | 0.00 | 0.00 | 0.00 | 69 | 1016.6 |
| 20260831195652 | 80 | 147 | 0.9 | 5.2 | 0.00 | 0.00 | 0.00 | 69 | 1016.6 |
| 20260831195147 | 80 | 319 | 1.7 | 2.6 | 0.00 | 0.00 | 0.00 | 69 | 1016.3 |
| 20260831194642 | 80 | 240 | 2.6 | 5.2 | 0.00 | 0.00 | 0.00 | 69 | 1016.3 |
| 20260831194138 | 80 | 216 | 1.7 | 2.6 | 0.00 | 0.00 | 0.00 | 69 | 1016.3 |
| 20260831193632 | 80 | 224 | 2.6 | 5.2 | 0.00 | 0.00 | 0.00 | 68 | 1017.0 |
| 20260831193127 | 80 | 316 | 0.9 | 3.5 | 0.00 | 0.00 | 0.00 | 68 | 1017.0 |
| 20260831192622 | 80 | 269 | 1.7 | 6.1 | 0.00 | 0.00 | 0.00 | 68 | 1016.6 |
| 20260831192118 | 80 | 338 | 1.7 | 2.6 | 0.00 | 0.00 | 0.00 | 69 | 1016.6 |
| 20260831191614 | 80 | 274 | 0.9 | 1.7 | 0.00 | 0.00 | 0.00 | 69 | 1016.6 |
| 20260831191109 | 80 | 214 | 1.7 | 2.6 | 0.00 | 0.00 | 0.00 | 68 | 1017.0 |
| 20260831190604 | 80 | 253 | 4.3 | 7.0 | 0.00 | 0.00 | 0.00 | 68 | 1016.6 |
| 20260831185559 | 80 | 319 | 2.6 | 5.2 | 0.00 | 0.00 | 0.00 | 67 | 1017.0 |
| 20260831185054 | 79 | 326 | 0.0 | 1.7 | 0.00 | 0.00 | 0.00 | 70 | 1016.6 |
| 20260831184554 | 80 | 307 | 1.7 | 5.2 | 0.00 | 0.00 | 0.00 | 69 | 1016.6 |
| 20260831184050 | 79 | 354 | 0.9 | 3.5 | 0.00 | 0.00 | 0.00 | 70 | 1016.6 |
| 20260831183549 | 78 | 286 | 2.6 | 3.5 | 0.00 | 0.00 | 0.00 | 71 | 1016.6 |
| 20260831183048 | 78 | 308 | 1.7 | 6.1 | 0.00 | 0.00 | 0.00 | 72 | 1016.6 |
| 20260831182543 | 78 | 234 | 2.6 | 5.2 | 0.00 | 0.00 | 0.00 | 72 | 1016.6 |
| 20260831182039 | 79 | 332 | 0.9 | 5.2 | 0.00 | 0.00 | 0.00 | 72 | 1017.0 |
| 20260831181538 | 78 | 296 | 0.9 | 2.6 | 0.00 | 0.00 | 0.00 | 72 | 1017.0 |
| 20260831181038 | 79 | 332 | 1.7 | 3.5 | 0.00 | 0.00 | 0.00 | 70 | 1017.0 |
| 20260831180534 | 78 | 274 | 0.9 | 5.2 | 0.00 | 0.00 | 0.00 | 72 | 1017.0 |
| 20260831180028 | 78 | 273 | 1.7 | 2.6 | 0.00 | 0.00 | 0.00 | 72 | 1016.6 |
| 20260831175523 | 78 | 224 | 0.9 | 3.5 | 0.00 | 0.00 | 0.00 | 73 | 1016.6 |
| 20260831175020 | 78 | 287 | 1.7 | 2.6 | 0.00 | 0.00 | 0.00 | 72 | 1017.0 |
| 20260831174515 | 78 | 223 | 1.7 | 2.6 | 0.00 | 0.00 | 0.00 | 71 | 1017.0 |
| 20260831174014 | 78 | 281 | 1.7 | 3.5 | 0.00 | 0.00 | 0.00 | 72 | 1016.6 |
| 20260831173513 | 78 | 335 | 0.9 | 3.5 | 0.00 | 0.00 | 0.00 | 73 | 1017.0 |
| 20260831173010 | 78 | 307 | 1.7 | 5.2 | 0.00 | 0.00 | 0.00 | 73 | 1016.6 |
| 20260831172504 | 77 | 344 | 0.9 | 2.6 | 0.00 | 0.00 | 0.00 | 73 | 1017.0 |
| 20260831171959 | 77 | 254 | 3.5 | 5.2 | 0.00 | 0.00 | 0.00 | 73 | 1017.0 |
| 20260831171455 | 77 | 306 | 2.6 | 5.2 | 0.00 | 0.00 | 0.00 | 73 | 1016.6 |
| 20260831170952 | 77 | 245 | 1.7 | 2.6 | 0.00 | 0.00 | 0.00 | 73 | 1017.0 |
| 20260831170448 | 76 | 234 | 0.9 | 1.7 | 0.00 | 0.00 | 0.00 | 75 | 1016.6 |
| 20260831165944 | 76 | 331 | 1.7 | 2.6 | 0.00 | 0.00 | 0.00 | 75 | 1016.6 |
| 20260831165440 | 76 | 338 | 0.9 | 1.7 | 0.00 | 0.00 | 0.00 | 75 | 1016.6 |
| 20260831164937 | 75 | 301 | 0.9 | 1.7 | 0.00 | 0.00 | 0.00 | 77 | 1016.6 |
| 20260831164432 | 75 | 292 | 1.7 | 2.6 | 0.00 | 0.00 | 0.00 | 77 | 1016.6 |
| 20260831163927 | 76 | 123 | 1.7 | 5.2 | 0.00 | 0.00 | 0.00 | 75 | 1016.3 |
| 20260831163422 | 77 | 335 | 0.9 | 2.6 | 0.00 | 0.00 | 0.00 | 74 | 1016.3 |
| 20260831162921 | 76 | 10 | 0.0 | 1.7 | 0.00 | 0.00 | 0.00 | 73 | 1016.3 |
| 20260831162417 | 76 | 338 | 0.9 | 2.6 | 0.00 | 0.00 | 0.00 | 73 | 1016.3 |
| 20260831161915 | 76 | 351 | 0.0 | 0.9 | 0.00 | 0.00 | 0.00 | 73 | 1016.3 |
| 20260831161412 | 77 | 73 | 1.7 | 3.5 | 0.00 | 0.00 | 0.00 | 73 | 1016.3 |
| 20260831160907 | 77 | 82 | 0.9 | 1.7 | 0.00 | 0.00 | 0.00 | 72 | 1016.3 |
| 20260831160402 | 78 | 19 | 0.9 | 1.7 | 0.00 | 0.00 | 0.00 | 71 | 1016.6 |
| 20260831155857 | 78 | 1 | 0.9 | 1.7 | 0.00 | 0.00 | 0.00 | 69 | 1016.3 |
| 20260831155356 | 77 | 325 | 0.0 | 1.7 | 0.00 | 0.00 | 0.00 | 72 | 1016.3 |
| 20260831154852 | 79 | 351 | 0.0 | 1.7 | 0.00 | 0.00 | 0.00 | 69 | 1016.3 |
| 20260831154349 | 78 | 348 | 0.9 | 0.9 | 0.00 | 0.00 | 0.00 | 69 | 1016.3 |
| 20260831153846 | 78 | 306 | 0.0 | 0.9 | 0.00 | 0.00 | 0.00 | 69 | 1016.3 |
| 20260831153343 | 77 | 356 | 0.9 | 1.7 | 0.00 | 0.00 | 0.00 | 72 | 1016.3 |
| 20260831152839 | 78 | 352 | 0.0 | 1.7 | 0.00 | 0.00 | 0.00 | 71 | 1016.3 |
| 20260831152334 | 78 | 346 | 0.9 | 0.9 | 0.00 | 0.00 | 0.00 | 70 | 1016.3 |
| 20260831151829 | 78 | 347 | 0.0 | 0.0 | 0.00 | 0.00 | 0.00 | 71 | 1016.0 |
| 20260831151328 | 76 | 4 | 0.0 | 0.9 | 0.00 | 0.00 | 0.00 | 75 | 1016.3 |
| 20260831150824 | 77 | 330 | 0.0 | 0.9 | 0.00 | 0.00 | 0.00 | 73 | 1016.3 |
| 20260831150319 | 78 | 33 | 0.9 | 0.9 | 0.00 | 0.00 | 0.00 | 72 | 1016.0 |
| 20260831145818 | 77 | 359 | 0.0 | 0.0 | 0.00 | 0.00 | 0.00 | 74 | 1016.0 |
| 20260831145315 | 75 | 350 | 0.0 | 0.0 | 0.00 | 0.00 | 0.00 | 76 | 1016.0 |
| 20260831144810 | 75 | 349 | 0.0 | 0.9 | 0.00 | 0.00 | 0.00 | 77 | 1016.0 |
| 20260831144306 | 74 | 3 | 0.9 | 0.9 | 0.00 | 0.00 | 0.00 | 78 | 1016.0 |
| 20260831143806 | 73 | 3 | 0.0 | 0.9 | 0.00 | 0.00 | 0.00 | 78 | 1016.0 |
| 20260831143301 | 72 | 2 | 0.9 | 0.9 | 0.00 | 0.00 | 0.00 | 79 | 1016.0 |
| 20260831142756 | 71 | 356 | 0.0 | 0.9 | 0.00 | 0.00 | 0.00 | 81 | 1016.0 |
| 20260831142252 | 70 | 351 | 0.0 | 0.0 | 0.00 | 0.00 | 0.00 | 85 | 1016.0 |
| 20260831141751 | 69 | 358 | 0.0 | 0.0 | 0.00 | 0.00 | 0.00 | 88 | 1015.6 |
| 20260831141251 | 69 | 348 | 0.0 | 0.0 | 0.00 | 0.00 | 0.00 | 90 | 1015.6 |
| 20260831140746 | 68 | 347 | 0.0 | 0.0 | 0.00 | 0.00 | 0.00 | 90 | 1015.6 |
| 20260831140241 | 67 | 342 | 0.0 | 0.0 | 0.00 | 0.00 | 0.00 | 90 | 1015.6 |
| 20260831135738 | 66 | 345 | 0.0 | 0.0 | 0.00 | 0.00 | 0.00 | 90 | 1015.3 |
| 20260831135234 | 66 | 346 | 0.0 | 0.0 | 0.00 | 0.00 | 0.00 | 90 | 1015.3 |
| 20260831134729 | 66 | 341 | 0.0 | 0.0 | 0.00 | 0.00 | 0.00 | 90 | 1015.6 |
| 20260831134226 | 66 | 338 | 0.0 | 0.0 | 0.00 | 0.00 | 0.00 | 90 | 1015.3 |
| 20260831133725 | 66 | 330 | 0.0 | 0.0 | 0.00 | 0.00 | 0.00 | 90 | 1014.9 |
| 20260831133219 | 65 | 340 | 0.0 | 0.0 | 0.00 | 0.00 | 0.00 | 90 | 1014.9 |
| 20260831132715 | 65 | 338 | 0.0 | 0.0 | 0.00 | 0.00 | 0.00 | 90 | 1014.9 |
| 20260831132214 | 66 | 341 | 0.0 | 0.0 | 0.00 | 0.00 | 0.00 | 90 | 1014.9 |
| 20260831131709 | 66 | 336 | 0.0 | 0.0 | 0.00 | 0.00 | 0.00 | 90 | 1014.9 |
| 20260831131206 | 66 | 333 | 0.0 | 0.0 | 0.00 | 0.00 | 0.00 | 90 | 1015.3 |
| 20260831130700 | 66 | 341 | 0.0 | 0.0 | 0.00 | 0.00 | 0.00 | 90 | 1014.9 |
| 20260831130156 | 66 | 335 | 0.0 | 0.0 | 0.00 | 0.00 | 0.00 | 90 | 1014.9 |
| 20260831125654 | 66 | 338 | 0.0 | 0.0 | 0.00 | 0.00 | 0.00 | 90 | 1014.9 |
| 20260831125150 | 66 | 341 | 0.0 | 0.0 | 0.00 | 0.00 | 0.00 | 90 | 1014.9 |
| 20260831124645 | 66 | 338 | 0.0 | 0.0 | 0.00 | 0.00 | 0.00 | 90 | 1014.9 |
| 20260831124141 | 66 | 334 | 0.0 | 0.0 | 0.00 | 0.00 | 0.00 | 90 | 1014.9 |
| 20260831123636 | 66 | 341 | 0.0 | 0.0 | 0.00 | 0.00 | 0.00 | 90 | 1014.9 |
| 20260831123134 | 66 | 341 | 0.0 | 0.0 | 0.00 | 0.00 | 0.00 | 90 | 1014.9 |
| 20260831122634 | 66 | 342 | 0.0 | 0.0 | 0.00 | 0.00 | 0.00 | 90 | 1014.9 |
| 20260831122131 | 67 | 344 | 0.0 | 0.0 | 0.00 | 0.00 | 0.00 | 90 | 1014.9 |
| 20260831121630 | 66 | 338 | 0.0 | 0.0 | 0.00 | 0.00 | 0.00 | 90 | 1014.9 |
| 20260831121126 | 66 | 338 | 0.0 | 0.0 | 0.00 | 0.00 | 0.00 | 90 | 1014.9 |
| 20260831120621 | 67 | 338 | 0.0 | 0.0 | 0.00 | 0.00 | 0.00 | 90 | 1014.9 |
| 20260831120116 | 67 | 339 | 0.0 | 0.0 | 0.00 | 0.00 | 0.00 | 90 | 1014.9 |
| 20260831115612 | 67 | 342 | 0.0 | 0.0 | 0.00 | 0.00 | 0.00 | 90 | 1014.9 |
| 20260831115107 | 67 | 340 | 0.0 | 0.0 | 0.00 | 0.00 | 0.00 | 90 | 1014.9 |
| 20260831114606 | 67 | 340 | 0.0 | 0.0 | 0.00 | 0.00 | 0.00 | 90 | 1014.9 |
| 20260831114101 | 67 | 339 | 0.0 | 0.0 | 0.00 | 0.00 | 0.00 | 90 | 1014.9 |
| 20260831113600 | 67 | 340 | 0.0 | 0.0 | 0.00 | 0.00 | 0.00 | 90 | 1014.9 |
| 20260831113056 | 67 | 340 | 0.0 | 0.0 | 0.00 | 0.00 | 0.00 | 89 | 1014.9 |
| 20260831112555 | 67 | 341 | 0.0 | 0.0 | 0.00 | 0.00 | 0.00 | 89 | 1014.9 |
| 20260831112050 | 67 | 340 | 0.0 | 0.0 | 0.00 | 0.00 | 0.00 | 89 | 1014.9 |
| 20260831111547 | 67 | 338 | 0.0 | 0.0 | 0.00 | 0.00 | 0.00 | 89 | 1014.9 |
| 20260831111042 | 67 | 341 | 0.0 | 0.0 | 0.00 | 0.00 | 0.00 | 89 | 1014.9 |
| 20260831110537 | 67 | 339 | 0.0 | 0.0 | 0.00 | 0.00 | 0.00 | 89 | 1014.9 |
| 20260831110032 | 68 | 337 | 0.0 | 0.0 | 0.00 | 0.00 | 0.00 | 89 | 1014.9 |
| 20260831105531 | 67 | 338 | 0.0 | 0.0 | 0.00 | 0.00 | 0.00 | 88 | 1014.6 |
| 20260831105026 | 67 | 341 | 0.0 | 0.0 | 0.00 | 0.00 | 0.00 | 88 | 1014.9 |
| 20260831104523 | 67 | 342 | 0.0 | 0.0 | 0.00 | 0.00 | 0.00 | 88 | 1014.9 |
| 20260831104018 | 67 | 340 | 0.0 | 0.0 | 0.00 | 0.00 | 0.00 | 88 | 1014.9 |
| 20260831103513 | 68 | 349 | 0.0 | 0.0 | 0.00 | 0.00 | 0.00 | 88 | 1014.9 |
| 20260831103009 | 68 | 339 | 0.0 | 0.0 | 0.00 | 0.00 | 0.00 | 87 | 1014.9 |
| 20260831102503 | 68 | 340 | 0.0 | 0.0 | 0.00 | 0.00 | 0.00 | 87 | 1015.3 |
| 20260831101958 | 68 | 342 | 0.0 | 0.0 | 0.00 | 0.00 | 0.00 | 87 | 1014.9 |
| 20260831101453 | 68 | 347 | 0.0 | 0.0 | 0.00 | 0.00 | 0.00 | 87 | 1014.9 |
| 20260831100949 | 68 | 336 | 0.0 | 0.0 | 0.00 | 0.00 | 0.00 | 87 | 1014.9 |
| 20260831100445 | 68 | 343 | 0.0 | 0.0 | 0.00 | 0.00 | 0.00 | 86 | 1014.9 |
| 20260831095940 | 69 | 346 | 0.0 | 0.0 | 0.00 | 0.00 | 0.00 | 86 | 1014.9 |
| 20260831095439 | 69 | 339 | 0.0 | 0.0 | 0.00 | 0.00 | 0.00 | 86 | 1014.9 |
| 20260831094934 | 69 | 339 | 0.0 | 0.0 | 0.00 | 0.00 | 0.00 | 86 | 1014.9 |
| 20260831094430 | 69 | 339 | 0.0 | 0.0 | 0.00 | 0.00 | 0.00 | 86 | 1014.9 |
| 20260831093926 | 69 | 331 | 0.0 | 0.0 | 0.00 | 0.00 | 0.00 | 85 | 1014.9 |
| 20260831093420 | 69 | 343 | 0.0 | 0.0 | 0.00 | 0.00 | 0.00 | 84 | 1014.9 |
| 20260831092917 | 70 | 342 | 0.0 | 0.0 | 0.00 | 0.00 | 0.00 | 84 | 1014.9 |
| 20260831092413 | 70 | 341 | 0.0 | 0.0 | 0.00 | 0.00 | 0.00 | 84 | 1014.9 |
| 20260831091908 | 70 | 338 | 0.0 | 0.9 | 0.00 | 0.00 | 0.00 | 84 | 1014.9 |
| 20260831091403 | 70 | 338 | 0.0 | 0.9 | 0.00 | 0.00 | 0.00 | 83 | 1014.9 |
| 20260831090858 | 70 | 340 | 0.0 | 0.0 | 0.00 | 0.00 | 0.00 | 83 | 1014.9 |
| 20260831090354 | 70 | 306 | 0.9 | 0.9 | 0.00 | 0.00 | 0.00 | 83 | 1014.9 |
| 20260831085850 | 70 | 294 | 0.0 | 0.0 | 0.00 | 0.00 | 0.00 | 82 | 1014.9 |
| 20260831085344 | 70 | 340 | 0.0 | 0.9 | 0.00 | 0.00 | 0.00 | 82 | 1014.9 |
| 20260831084839 | 70 | 323 | 0.9 | 1.7 | 0.00 | 0.00 | 0.00 | 81 | 1014.9 |
| 20260831084335 | 70 | 223 | 0.9 | 0.9 | 0.00 | 0.00 | 0.00 | 81 | 1014.9 |
| 20260831083831 | 70 | 331 | 0.9 | 0.9 | 0.00 | 0.00 | 0.00 | 81 | 1014.9 |
| 20260831083326 | 70 | 322 | 0.0 | 2.6 | 0.00 | 0.00 | 0.00 | 81 | 1014.9 |
| 20260831082825 | 70 | 238 | 1.7 | 1.7 | 0.00 | 0.00 | 0.00 | 81 | 1014.9 |
| 20260831082320 | 70 | 45 | 0.0 | 1.7 | 0.00 | 0.00 | 0.00 | 81 | 1014.9 |
| 20260831081816 | 70 | 346 | 0.0 | 0.9 | 0.00 | 0.00 | 0.00 | 80 | 1014.9 |
| 20260831081311 | 70 | 336 | 0.0 | 1.7 | 0.00 | 0.00 | 0.00 | 80 | 1014.9 |
| 20260831080807 | 70 | 349 | 0.0 | 0.9 | 0.00 | 0.00 | 0.00 | 78 | 1014.9 |
| 20260831080301 | 70 | 14 | 0.9 | 0.9 | 0.00 | 0.00 | 0.00 | 78 | 1014.9 |
| 20260831075757 | 70 | 345 | 0.0 | 0.9 | 0.00 | 0.00 | 0.00 | 78 | 1014.9 |
| 20260831075252 | 70 | 21 | 0.0 | 0.9 | 0.00 | 0.00 | 0.00 | 78 | 1014.9 |
| 20260831074752 | 70 | 7 | 0.0 | 1.7 | 0.00 | 0.00 | 0.00 | 78 | 1014.9 |
| 20260831074246 | 70 | 16 | 0.9 | 1.7 | 0.00 | 0.00 | 0.00 | 78 | 1014.9 |
| 20260831073742 | 69 | 352 | 0.9 | 1.7 | 0.00 | 0.00 | 0.00 | 79 | 1014.6 |
| 20260831073241 | 69 | 2 | 0.9 | 0.9 | 0.00 | 0.00 | 0.00 | 79 | 1014.3 |
| 20260831072736 | 69 | 10 | 0.9 | 0.9 | 0.00 | 0.00 | 0.00 | 80 | 1014.6 |
| 20260831072232 | 69 | 7 | 0.0 | 0.9 | 0.00 | 0.00 | 0.00 | 80 | 1014.6 |
| 20260831071732 | 69 | 359 | 0.0 | 0.0 | 0.00 | 0.00 | 0.00 | 80 | 1014.6 |
| 20260831071227 | 69 | 354 | 0.0 | 0.0 | 0.00 | 0.00 | 0.00 | 80 | 1014.6 |
| 20260831070721 | 69 | 346 | 0.0 | 0.0 | 0.00 | 0.00 | 0.00 | 81 | 1014.3 |
| 20260831070215 | 69 | 350 | 0.0 | 0.0 | 0.00 | 0.00 | 0.00 | 81 | 1014.6 |
| 20260831065714 | 69 | 342 | 0.0 | 0.0 | 0.00 | 0.00 | 0.00 | 81 | 1014.6 |
| 20260831065213 | 69 | 336 | 0.0 | 0.0 | 0.00 | 0.00 | 0.00 | 81 | 1014.6 |
| 20260831064708 | 69 | 347 | 0.0 | 0.9 | 0.00 | 0.00 | 0.00 | 81 | 1014.6 |
| 20260831064203 | 69 | 347 | 0.0 | 0.0 | 0.00 | 0.00 | 0.00 | 81 | 1014.6 |
| 20260831063659 | 69 | 346 | 0.0 | 0.0 | 0.00 | 0.00 | 0.00 | 81 | 1014.9 |
| 20260831063154 | 69 | 342 | 0.0 | 0.0 | 0.00 | 0.00 | 0.00 | 80 | 1014.6 |
| 20260831062649 | 69 | 345 | 0.0 | 0.0 | 0.00 | 0.00 | 0.00 | 80 | 1014.6 |
| 20260831062148 | 69 | 346 | 0.0 | 0.0 | 0.00 | 0.00 | 0.00 | 80 | 1014.3 |
| 20260831061646 | 70 | 343 | 0.0 | 0.9 | 0.00 | 0.00 | 0.00 | 80 | 1014.6 |
| 20260831061142 | 69 | 333 | 0.0 | 0.0 | 0.00 | 0.00 | 0.00 | 80 | 1014.6 |
| 20260831060638 | 70 | 338 | 0.0 | 0.0 | 0.00 | 0.00 | 0.00 | 80 | 1014.6 |
| 20260831060138 | 70 | 332 | 0.0 | 0.0 | 0.00 | 0.00 | 0.00 | 80 | 1014.3 |
| 20260831055637 | 70 | 341 | 0.0 | 0.9 | 0.00 | 0.00 | 0.00 | 80 | 1014.6 |
| 20260831055133 | 70 | 337 | 0.0 | 0.0 | 0.00 | 0.00 | 0.00 | 80 | 1014.6 |
| 20260831054632 | 70 | 336 | 0.0 | 0.0 | 0.00 | 0.00 | 0.00 | 80 | 1014.6 |
| 20260831054132 | 70 | 336 | 0.0 | 0.0 | 0.00 | 0.00 | 0.00 | 81 | 1014.6 |
| 20260831053627 | 70 | 334 | 0.0 | 0.0 | 0.00 | 0.00 | 0.00 | 81 | 1014.6 |
| 20260831053126 | 70 | 323 | 0.0 | 0.0 | 0.00 | 0.00 | 0.00 | 81 | 1014.6 |
| 20260831052625 | 70 | 314 | 0.0 | 0.9 | 0.00 | 0.00 | 0.00 | 81 | 1014.3 |
| 20260831052124 | 70 | 271 | 0.9 | 0.9 | 0.00 | 0.00 | 0.00 | 82 | 1014.3 |
| 20260831051622 | 71 | 314 | 0.9 | 1.7 | 0.00 | 0.00 | 0.00 | 82 | 1014.6 |
| 20260831051115 | 71 | 340 | 0.0 | 0.0 | 0.00 | 0.00 | 0.00 | 82 | 1014.6 |
| 20260831050610 | 71 | 314 | 0.9 | 1.7 | 0.00 | 0.00 | 0.00 | 82 | 1014.6 |
| 20260831050108 | 71 | 341 | 0.0 | 0.9 | 0.00 | 0.00 | 0.00 | 82 | 1014.6 |
| 20260831045603 | 71 | 305 | 0.0 | 0.9 | 0.00 | 0.00 | 0.00 | 82 | 1014.9 |
| 20260831045058 | 71 | 333 | 1.7 | 2.6 | 0.00 | 0.00 | 0.00 | 82 | 1014.6 |
| 20260831044553 | 71 | 266 | 0.9 | 1.7 | 0.00 | 0.00 | 0.00 | 82 | 1014.3 |
| 20260831044048 | 71 | 250 | 0.9 | 1.7 | 0.00 | 0.00 | 0.00 | 81 | 1014.3 |
| 20260831043543 | 71 | 306 | 0.9 | 1.7 | 0.00 | 0.00 | 0.00 | 81 | 1014.6 |
| 20260831043039 | 71 | 301 | 1.7 | 1.7 | 0.00 | 0.00 | 0.00 | 81 | 1014.6 |
| 20260831042538 | 71 | 293 | 0.9 | 2.6 | 0.00 | 0.00 | 0.00 | 81 | 1014.3 |
| 20260831042033 | 71 | 314 | 0.0 | 2.6 | 0.00 | 0.00 | 0.00 | 80 | 1014.3 |
| 20260831041528 | 71 | 323 | 0.9 | 2.6 | 0.00 | 0.00 | 0.00 | 79 | 1014.3 |
| 20260831041027 | 71 | 322 | 1.7 | 2.6 | 0.00 | 0.00 | 0.00 | 79 | 1014.6 |
| 20260831040522 | 71 | 34 | 1.7 | 1.7 | 0.00 | 0.00 | 0.00 | 78 | 1014.3 |
| 20260831040022 | 71 | 308 | 1.7 | 2.6 | 0.00 | 0.00 | 0.00 | 78 | 1014.3 |
| 20260831035519 | 71 | 230 | 2.6 | 3.5 | 0.00 | 0.00 | 0.00 | 78 | 1014.3 |
| 20260831035015 | 71 | 285 | 1.7 | 1.7 | 0.00 | 0.00 | 0.00 | 78 | 1013.9 |
| 20260831034509 | 71 | 347 | 0.0 | 1.7 | 0.00 | 0.00 | 0.00 | 77 | 1013.9 |
| 20260831034005 | 72 | 290 | 1.7 | 3.5 | 0.00 | 0.00 | 0.00 | 77 | 1013.9 |
| 20260831033500 | 72 | 325 | 0.0 | 0.9 | 0.00 | 0.00 | 0.00 | 77 | 1013.9 |
| 20260831032956 | 72 | 164 | 1.7 | 2.6 | 0.00 | 0.00 | 0.00 | 77 | 1013.6 |
| 20260831032455 | 72 | 304 | 0.9 | 1.7 | 0.00 | 0.00 | 0.00 | 77 | 1013.6 |
| 20260831031950 | 72 | 339 | 0.0 | 1.7 | 0.00 | 0.00 | 0.00 | 77 | 1013.6 |
| 20260831031450 | 72 | 314 | 0.9 | 2.6 | 0.00 | 0.00 | 0.00 | 78 | 1013.2 |
| 20260831030949 | 72 | 320 | 0.9 | 1.7 | 0.00 | 0.00 | 0.00 | 78 | 1013.6 |
| 20260831030449 | 72 | 267 | 1.7 | 2.6 | 0.00 | 0.00 | 0.00 | 78 | 1013.2 |
| 20260831025947 | 72 | 240 | 1.7 | 2.6 | 0.00 | 0.00 | 0.00 | 78 | 1013.2 |
| 20260831025446 | 72 | 248 | 1.7 | 3.5 | 0.00 | 0.00 | 0.00 | 78 | 1013.2 |
| 20260831024942 | 72 | 292 | 1.7 | 5.2 | 0.00 | 0.00 | 0.00 | 78 | 1013.6 |
| 20260831024442 | 72 | 253 | 1.7 | 2.6 | 0.00 | 0.00 | 0.00 | 78 | 1013.6 |
| 20260831023937 | 73 | 239 | 2.6 | 3.5 | 0.00 | 0.00 | 0.00 | 77 | 1013.2 |
| 20260831023435 | 73 | 272 | 1.7 | 1.7 | 0.00 | 0.00 | 0.00 | 77 | 1013.2 |
| 20260831022930 | 73 | 324 | 0.0 | 1.7 | 0.00 | 0.00 | 0.00 | 77 | 1013.2 |
| 20260831022429 | 73 | 259 | 1.7 | 1.7 | 0.00 | 0.00 | 0.00 | 77 | 1013.2 |
| 20260831021924 | 73 | 195 | 0.9 | 1.7 | 0.00 | 0.00 | 0.00 | 77 | 1013.2 |
| 20260831021424 | 73 | 343 | 0.0 | 0.9 | 0.00 | 0.00 | 0.00 | 77 | 1013.2 |
| 20260831020920 | 73 | 288 | 0.9 | 1.7 | 0.00 | 0.00 | 0.00 | 77 | 1013.2 |
| 20260831020419 | 74 | 340 | 1.7 | 3.5 | 0.00 | 0.00 | 0.00 | 76 | 1013.2 |
| 20260831015914 | 74 | 303 | 1.7 | 2.6 | 0.00 | 0.00 | 0.00 | 75 | 1013.2 |
| 20260831015410 | 74 | 274 | 1.7 | 1.7 | 0.00 | 0.00 | 0.00 | 75 | 1012.9 |
| 20260831014910 | 74 | 339 | 0.9 | 2.6 | 0.00 | 0.00 | 0.00 | 74 | 1012.9 |
| 20260831014405 | 74 | 222 | 3.5 | 3.5 | 0.00 | 0.00 | 0.00 | 74 | 1012.9 |
| 20260831013901 | 75 | 340 | 0.9 | 1.7 | 0.00 | 0.00 | 0.00 | 75 | 1013.2 |
| 20260831013356 | 75 | 294 | 0.9 | 1.7 | 0.00 | 0.00 | 0.00 | 74 | 1013.2 |
| 20260831012850 | 75 | 338 | 0.0 | 0.9 | 0.00 | 0.00 | 0.00 | 75 | 1013.2 |
| 20260831012345 | 75 | 323 | 0.9 | 2.6 | 0.00 | 0.00 | 0.00 | 75 | 1012.9 |
| 20260831011840 | 75 | 327 | 1.7 | 2.6 | 0.00 | 0.00 | 0.00 | 75 | 1013.2 |
| 20260831011335 | 76 | 233 | 3.5 | 3.5 | 0.00 | 0.00 | 0.00 | 75 | 1012.9 |
| 20260831010831 | 76 | 344 | 0.9 | 1.7 | 0.00 | 0.00 | 0.00 | 75 | 1013.2 |
| 20260831010330 | 75 | 343 | 0.0 | 0.9 | 0.00 | 0.00 | 0.00 | 76 | 1013.2 |
| 20260831005826 | 75 | 314 | 0.9 | 2.6 | 0.00 | 0.00 | 0.00 | 76 | 1013.2 |
| 20260831005321 | 75 | 281 | 2.6 | 5.2 | 0.00 | 0.00 | 0.00 | 76 | 1013.2 |
| 20260831004816 | 76 | 309 | 1.7 | 2.6 | 0.00 | 0.00 | 0.00 | 76 | 1013.2 |
| 20260831004312 | 76 | 236 | 1.7 | 3.5 | 0.00 | 0.00 | 0.00 | 77 | 1013.2 |
| 20260831003808 | 77 | 354 | 3.5 | 6.1 | 0.00 | 0.00 | 0.00 | 75 | 1013.2 |
| 20260831003304 | 77 | 347 | 1.7 | 2.6 | 0.00 | 0.00 | 0.00 | 73 | 1012.9 |
| 20260831002803 | 77 | 333 | 0.0 | 2.6 | 0.00 | 0.00 | 0.00 | 76 | 1013.2 |
| 20260831002305 | 76 | 300 | 1.7 | 5.2 | 0.00 | 0.00 | 0.00 | 77 | 1013.2 |
| 20260831001758 | 77 | 259 | 3.5 | 6.1 | 0.00 | 0.00 | 0.00 | 75 | 1013.2 |
| 20260831001253 | 78 | 228 | 3.5 | 5.2 | 0.00 | 0.00 | 0.00 | 73 | 1013.2 |
| 20260831000751 | 78 | 329 | 1.7 | 2.6 | 0.00 | 0.00 | 0.00 | 73 | 1013.2 |
| 20260831000250 | 77 | 321 | 1.7 | 6.1 | 0.00 | 0.00 | 0.00 | 76 | 1013.2 |
| 20260830235749 | 77 | 105 | 2.6 | 5.2 | 0.00 | 0.00 | 0.00 | 76 | 1013.2 |
| 20260830235244 | 77 | 268 | 3.5 | 3.5 | 0.00 | 0.00 | 0.00 | 75 | 1013.2 |
| 20260830234739 | 77 | 282 | 1.7 | 3.5 | 0.00 | 0.00 | 0.00 | 75 | 1013.2 |
| 20260830234235 | 79 | 282 | 1.7 | 3.5 | 0.00 | 0.00 | 0.00 | 73 | 1013.2 |
| 20260830233731 | 79 | 341 | 0.0 | 1.7 | 0.00 | 0.00 | 0.00 | 73 | 1013.2 |
| 20260830233226 | 79 | 216 | 3.5 | 5.2 | 0.00 | 0.00 | 0.00 | 72 | 1012.9 |
| 20260830232721 | 80 | 246 | 3.5 | 6.1 | 0.00 | 0.00 | 0.00 | 71 | 1013.2 |
| 20260830232217 | 80 | 321 | 0.9 | 3.5 | 0.00 | 0.00 | 0.00 | 72 | 1013.2 |
| 20260830231714 | 81 | 320 | 1.7 | 2.6 | 0.00 | 0.00 | 0.00 | 70 | 1013.2 |
| 20260830231213 | 81 | 306 | 3.5 | 6.1 | 0.00 | 0.00 | 0.00 | 71 | 1013.2 |
| 20260830230708 | 81 | 332 | 1.7 | 7.0 | 0.00 | 0.00 | 0.00 | 71 | 1013.2 |
| 20260830230203 | 81 | 264 | 3.5 | 3.5 | 0.00 | 0.00 | 0.00 | 70 | 1013.2 |